Time,TemperatureF,DewpointF,PressureIn,WindDirection,WindDirectionDegrees,WindSpeedMPH,WindSpeedGustMPH,Humidity,HourlyPrecipIn,Conditions,Clouds,dailyrainin,SolarRadiationWatts/m^2,SoftwareType,DateUTC
2013-11-09 00:00:00,28.1,25.5,30.22,SW,225,0.0,0.0,90,0.00,,---,0.00,0.00,VWS V14.01,2013-11-09 05:00:00,
2013-11-09 00:05:00,28.1,25.5,30.22,SW,225,0.0,0.0,90,0.00,,---,0.00,0.00,VWS V14.01,2013-11-09 05:05:00,
2013-11-09 00:10:00,28.1,25.5,30.22,SW,225,0.0,0.0,90,0.00,,---,0.00,0.00,VWS V14.01,2013-11-09 05:10:00,
2013-11-09 00:15:00,28.2,25.6,30.22,SW,225,0.0,0.0,90,0.00,,---,0.00,0.00,VWS V14.01,2013-11-09 05:15:00,
2013-11-09 00:20:00,28.2,25.9,30.22,SW,225,0.0,0.0,91,0.00,,---,0.00,0.00,VWS V14.01,2013-11-09 05:20:00,
2013-11-09 00:25:00,28.2,25.9,30.23,SW,225,0.0,0.0,91,0.00,,---,0.00,0.00,VWS V14.01,2013-11-09 05:25:00,
2013-11-09 00:30:00,28.2,25.9,30.23,SW,225,0.0,0.0,91,0.00,,---,0.00,0.00,VWS V14.01,2013-11-09 05:30:00,
2013-11-09 00:35:00,28.2,25.9,30.23,SW,225,0.0,0.0,91,0.00,,---,0.00,0.00,VWS V14.01,2013-11-09 05:35:00,
2013-11-09 00:40:00,28.2,25.9,30.23,SW,225,0.0,0.0,91,0.00,,---,0.00,0.00,VWS V14.01,2013-11-09 05:40:00,
2013-11-09 00:45:00,28.2,25.9,30.23,SW,225,0.0,0.0,91,0.00,,---,0.00,0.00,VWS V14.01,2013-11-09 05:45:00,
2013-11-09 00:50:00,28.2,25.9,30.22,SW,225,0.0,1.0,91,0.00,,---,0.00,0.00,VWS V14.01,2013-11-09 05:50:00,
2013-11-09 00:55:00,28.3,26.3,30.22,SW,225,0.0,1.0,92,0.00,,---,0.00,0.00,VWS V14.01,2013-11-09 05:55:00,
2013-11-09 01:00:00,28.6,26.6,30.22,SW,225,0.0,2.0,92,0.00,,---,0.00,0.00,VWS V14.01,2013-11-09 06:00:00,
2013-11-09 01:05:00,29.0,27.0,30.21,SW,225,0.0,2.0,92,0.00,,---,0.00,0.00,VWS V14.01,2013-11-09 06:05:00,
2013-11-09 01:10:00,29.3,27.3,30.21,SW,225,0.0,0.0,92,0.00,,---,0.00,0.00,VWS V14.01,2013-11-09 06:10:00,
2013-11-09 01:15:00,29.5,27.5,30.21,SW,225,0.0,4.0,92,0.00,,---,0.00,0.00,VWS V14.01,2013-11-09 06:15:00,
2013-11-09 01:20:00,30.0,28.2,30.21,SW,225,0.0,2.0,93,0.00,,---,0.00,0.00,VWS V14.01,2013-11-09 06:20:00,
2013-11-09 01:25:00,30.8,29.0,30.20,SSW,202,1.0,4.0,93,0.00,,---,0.00,0.00,VWS V14.01,2013-11-09 06:25:00,
2013-11-09 01:30:00,31.7,29.9,30.20,SSE,158,1.0,5.0,93,0.00,,---,0.00,0.00,VWS V14.01,2013-11-09 06:30:00,
2013-11-09 01:35:00,32.6,30.8,30.20,SSE,158,1.0,5.0,93,0.00,,---,0.00,0.00,VWS V14.01,2013-11-09 06:35:00,
2013-11-09 01:40:00,33.2,31.1,30.20,SSE,158,1.0,5.0,92,0.00,,---,0.00,0.00,VWS V14.01,2013-11-09 06:40:00,
2013-11-09 01:45:00,33.8,31.5,30.20,SSE,158,2.0,6.0,91,0.00,,---,0.00,0.00,VWS V14.01,2013-11-09 06:45:00,
2013-11-09 01:50:00,34.3,31.4,30.20,SSE,158,0.0,2.0,89,0.00,,---,0.00,0.00,VWS V14.01,2013-11-09 06:50:00,
2013-11-09 01:55:00,34.7,31.2,30.20,SSE,158,0.0,3.0,87,0.00,,---,0.00,0.00,VWS V14.01,2013-11-09 06:55:00,
2013-11-09 02:00:00,35.1,31.3,30.20,SSE,158,0.0,1.0,86,0.00,,---,0.00,0.00,VWS V14.01,2013-11-09 07:00:00,
2013-11-09 02:05:00,35.3,31.2,30.20,SSE,158,0.0,2.0,85,0.00,,---,0.00,0.00,VWS V14.01,2013-11-09 07:05:00,
2013-11-09 02:10:00,35.5,31.1,30.20,SSE,158,0.0,3.0,84,0.00,,---,0.00,0.00,VWS V14.01,2013-11-09 07:10:00,
2013-11-09 02:15:00,35.7,31.4,30.20,SSE,158,0.0,3.0,84,0.00,,---,0.00,0.00,VWS V14.01,2013-11-09 07:15:00,
2013-11-09 02:20:00,35.9,31.2,30.20,SSE,158,1.0,5.0,83,0.00,,---,0.00,0.00,VWS V14.01,2013-11-09 07:20:00,
2013-11-09 02:25:00,36.1,31.1,30.20,SSE,158,1.0,4.0,82,0.00,,---,0.00,0.00,VWS V14.01,2013-11-09 07:25:00,
2013-11-09 02:30:00,36.2,30.9,30.20,SSE,158,1.0,5.0,81,0.00,,---,0.00,0.00,VWS V14.01,2013-11-09 07:30:00,
2013-11-09 02:35:00,36.3,30.7,30.20,SSE,158,1.0,6.0,80,0.00,,---,0.00,0.00,VWS V14.01,2013-11-09 07:35:00,
2013-11-09 02:40:00,36.4,30.8,30.20,SSE,158,0.0,2.0,80,0.00,,---,0.00,0.00,VWS V14.01,2013-11-09 07:40:00,
2013-11-09 02:45:00,36.5,30.9,30.19,SSE,158,1.0,4.0,80,0.00,,---,0.00,0.00,VWS V14.01,2013-11-09 07:45:00,
2013-11-09 02:50:00,36.5,30.6,30.19,SSE,158,1.0,5.0,79,0.00,,---,0.00,0.00,VWS V14.01,2013-11-09 07:50:00,
2013-11-09 02:55:00,36.5,30.6,30.19,SSE,158,0.0,3.0,79,0.00,,---,0.00,0.00,VWS V14.01,2013-11-09 07:55:00,
2013-11-09 03:00:00,36.5,30.6,30.19,SSE,158,1.0,7.0,79,0.00,,---,0.00,0.00,VWS V14.01,2013-11-09 08:00:00,
2013-11-09 03:05:00,36.5,30.6,30.19,SSE,158,1.0,5.0,79,0.00,,---,0.00,0.00,VWS V14.01,2013-11-09 08:05:00,
2013-11-09 03:10:00,36.5,30.6,30.18,South,180,1.0,5.0,79,0.00,,---,0.00,0.00,VWS V14.01,2013-11-09 08:10:00,
2013-11-09 03:15:00,36.4,30.5,30.18,SSE,158,1.0,4.0,79,0.00,,---,0.00,0.00,VWS V14.01,2013-11-09 08:15:00,
2013-11-09 03:20:00,36.3,30.4,30.18,SSE,158,0.0,3.0,79,0.00,,---,0.00,0.00,VWS V14.01,2013-11-09 08:20:00,
2013-11-09 03:25:00,36.3,30.4,30.18,SSE,158,1.0,4.0,79,0.00,,---,0.00,0.00,VWS V14.01,2013-11-09 08:25:00,
2013-11-09 03:30:00,36.2,30.3,30.18,SSE,158,0.0,0.0,79,0.00,,---,0.00,0.00,VWS V14.01,2013-11-09 08:30:00,
2013-11-09 03:35:00,36.2,30.3,30.18,SSE,158,1.0,4.0,79,0.00,,---,0.00,0.00,VWS V14.01,2013-11-09 08:35:00,
2013-11-09 03:40:00,36.2,30.3,30.18,SSE,158,0.0,3.0,79,0.00,,---,0.00,0.00,VWS V14.01,2013-11-09 08:40:00,
2013-11-09 03:45:00,36.2,30.3,30.18,SSE,158,1.0,5.0,79,0.00,,---,0.00,0.00,VWS V14.01,2013-11-09 08:45:00,
2013-11-09 03:50:00,36.2,30.3,30.17,SSE,158,1.0,6.0,79,0.00,,---,0.00,0.00,VWS V14.01,2013-11-09 08:50:00,
2013-11-09 03:55:00,36.2,30.3,30.17,SSE,158,0.0,3.0,79,0.00,,---,0.00,0.00,VWS V14.01,2013-11-09 08:55:00,
2013-11-09 04:00:00,36.2,30.3,30.17,SSE,158,1.0,5.0,79,0.00,,---,0.00,0.00,VWS V14.01,2013-11-09 09:00:00,
2013-11-09 04:05:00,36.2,30.0,30.17,SSE,158,1.0,7.0,78,0.00,,---,0.00,0.00,VWS V14.01,2013-11-09 09:05:00,
2013-11-09 04:10:00,36.2,30.0,30.17,SSE,158,1.0,8.0,78,0.00,,---,0.00,0.00,VWS V14.01,2013-11-09 09:10:00,
2013-11-09 04:15:00,36.3,30.1,30.17,SSE,158,1.0,9.0,78,0.00,,---,0.00,0.00,VWS V14.01,2013-11-09 09:15:00,
2013-11-09 04:20:00,36.3,30.1,30.17,SSE,158,1.0,8.0,78,0.00,,---,0.00,0.00,VWS V14.01,2013-11-09 09:20:00,
2013-11-09 04:25:00,36.3,30.1,30.16,SSE,158,1.0,7.0,78,0.00,,---,0.00,0.00,VWS V14.01,2013-11-09 09:25:00,
2013-11-09 04:30:00,36.4,29.9,30.16,SSE,158,2.0,7.0,77,0.00,,---,0.00,0.00,VWS V14.01,2013-11-09 09:30:00,
2013-11-09 04:35:00,36.4,29.9,30.16,SSE,158,2.0,7.0,77,0.00,,---,0.00,0.00,VWS V14.01,2013-11-09 09:35:00,
2013-11-09 04:40:00,36.5,30.0,30.17,SSE,158,2.0,7.0,77,0.00,,---,0.00,0.00,VWS V14.01,2013-11-09 09:40:00,
2013-11-09 04:45:00,36.6,30.1,30.16,South,180,2.0,7.0,77,0.00,,---,0.00,0.00,VWS V14.01,2013-11-09 09:45:00,
2013-11-09 04:50:00,36.6,30.1,30.16,South,180,2.0,7.0,77,0.00,,---,0.00,0.00,VWS V14.01,2013-11-09 09:50:00,
2013-11-09 04:55:00,36.6,30.1,30.16,SSE,158,2.0,7.0,77,0.00,,---,0.00,0.00,VWS V14.01,2013-11-09 09:55:00,
2013-11-09 05:00:00,36.7,30.2,30.16,South,180,2.0,8.0,77,0.00,,---,0.00,0.00,VWS V14.01,2013-11-09 10:00:00,
2013-11-09 05:05:00,36.7,30.2,30.16,South,180,2.0,8.0,77,0.00,,---,0.00,0.00,VWS V14.01,2013-11-09 10:05:00,
2013-11-09 05:10:00,36.7,29.9,30.16,South,180,1.0,5.0,76,0.00,,---,0.00,0.00,VWS V14.01,2013-11-09 10:10:00,
2013-11-09 05:15:00,36.8,30.0,30.16,South,180,1.0,9.0,76,0.00,,---,0.00,0.00,VWS V14.01,2013-11-09 10:15:00,
2013-11-09 05:20:00,36.8,30.0,30.16,South,180,2.0,9.0,76,0.00,,---,0.00,0.00,VWS V14.01,2013-11-09 10:20:00,
2013-11-09 05:25:00,36.9,30.0,30.16,South,180,2.0,6.0,76,0.00,,---,0.00,0.00,VWS V14.01,2013-11-09 10:25:00,
2013-11-09 05:30:00,37.0,29.8,30.16,SSE,158,1.0,6.0,75,0.00,,---,0.00,0.00,VWS V14.01,2013-11-09 10:30:00,
2013-11-09 05:35:00,37.0,29.8,30.16,SSE,158,1.0,4.0,75,0.00,,---,0.00,0.00,VWS V14.01,2013-11-09 10:35:00,
2013-11-09 05:40:00,37.1,29.9,30.16,SSE,158,1.0,6.0,75,0.00,,---,0.00,0.00,VWS V14.01,2013-11-09 10:40:00,
2013-11-09 05:45:00,37.1,29.9,30.15,SSE,158,1.0,7.0,75,0.00,,---,0.00,0.00,VWS V14.01,2013-11-09 10:45:00,
2013-11-09 05:50:00,37.2,29.7,30.15,South,180,1.0,5.0,74,0.00,,---,0.00,0.00,VWS V14.01,2013-11-09 10:50:00,
2013-11-09 05:55:00,37.3,29.8,30.14,South,180,0.0,5.0,74,0.00,,---,0.00,0.00,VWS V14.01,2013-11-09 10:55:00,
2013-11-09 06:00:00,37.3,29.8,30.14,South,180,1.0,6.0,74,0.00,,---,0.00,0.00,VWS V14.01,2013-11-09 11:00:00,
2013-11-09 06:05:00,37.4,29.9,30.14,South,180,1.0,4.0,74,0.00,,---,0.00,0.00,VWS V14.01,2013-11-09 11:05:00,
2013-11-09 06:10:00,37.5,30.0,30.14,South,180,2.0,9.0,74,0.00,,---,0.00,0.00,VWS V14.01,2013-11-09 11:10:00,
2013-11-09 06:15:00,37.7,29.8,30.14,SSE,158,0.0,3.0,73,0.00,,---,0.00,0.00,VWS V14.01,2013-11-09 11:15:00,
2013-11-09 06:20:00,37.7,29.8,30.15,South,180,1.0,4.0,73,0.00,,---,0.00,0.00,VWS V14.01,2013-11-09 11:20:00,
2013-11-09 06:25:00,37.8,29.9,30.15,South,180,1.0,5.0,73,0.00,,---,0.00,0.00,VWS V14.01,2013-11-09 11:25:00,
2013-11-09 06:30:00,37.9,29.7,30.15,South,180,1.0,7.0,72,0.00,,---,0.00,0.00,VWS V14.01,2013-11-09 11:30:00,
2013-11-09 06:35:00,38.0,29.8,30.15,South,180,2.0,7.0,72,0.00,,---,0.00,0.00,VWS V14.01,2013-11-09 11:35:00,
2013-11-09 06:40:00,38.2,30.0,30.15,South,180,2.0,7.0,72,0.00,,---,0.00,0.00,VWS V14.01,2013-11-09 11:40:00,
2013-11-09 06:45:00,38.3,29.7,30.15,South,180,4.0,10.0,71,0.00,,---,0.00,0.00,VWS V14.01,2013-11-09 11:45:00,
2013-11-09 06:50:00,38.5,29.6,30.15,SSW,202,4.0,12.0,70,0.00,,---,0.00,0.00,VWS V14.01,2013-11-09 11:50:00,
2013-11-09 06:55:00,38.7,29.8,30.14,SSW,202,3.0,9.0,70,0.00,,---,0.00,0.00,VWS V14.01,2013-11-09 11:55:00,
2013-11-09 07:00:00,38.7,29.4,30.14,SSW,202,3.0,10.0,69,0.00,,---,0.00,0.00,VWS V14.01,2013-11-09 12:00:00,
2013-11-09 07:05:00,38.8,29.5,30.15,SSW,202,3.0,11.0,69,0.00,,---,0.00,0.00,VWS V14.01,2013-11-09 12:05:00,
2013-11-09 07:10:00,38.8,29.5,30.15,South,180,2.0,9.0,69,0.00,,---,0.00,1.00,VWS V14.01,2013-11-09 12:10:00,
2013-11-09 07:15:00,38.7,29.4,30.14,South,180,1.0,5.0,69,0.00,,---,0.00,6.00,VWS V14.01,2013-11-09 12:15:00,
2013-11-09 07:20:00,38.6,29.3,30.14,South,180,1.0,6.0,69,0.00,,---,0.00,9.00,VWS V14.01,2013-11-09 12:20:00,
2013-11-09 07:25:00,38.4,29.1,30.14,South,180,1.0,6.0,69,0.00,,---,0.00,13.00,VWS V14.01,2013-11-09 12:25:00,
2013-11-09 07:30:00,38.3,29.0,30.14,South,180,3.0,8.0,69,0.00,,---,0.00,18.00,VWS V14.01,2013-11-09 12:30:00,
2013-11-09 07:35:00,38.2,29.3,30.14,South,180,2.0,7.0,70,0.00,,---,0.00,20.00,VWS V14.01,2013-11-09 12:35:00,
2013-11-09 07:40:00,38.2,28.9,30.13,South,180,2.0,6.0,69,0.00,,---,0.00,23.00,VWS V14.01,2013-11-09 12:40:00,
2013-11-09 07:45:00,38.2,28.9,30.13,South,180,2.0,5.0,69,0.00,,---,0.00,27.00,VWS V14.01,2013-11-09 12:45:00,
2013-11-09 07:50:00,38.2,28.9,30.13,South,180,1.0,4.0,69,0.00,,---,0.00,32.00,VWS V14.01,2013-11-09 12:50:00,
2013-11-09 07:55:00,38.2,28.9,30.13,South,180,4.0,10.0,69,0.00,,---,0.00,37.00,VWS V14.01,2013-11-09 12:55:00,
2013-11-09 08:00:00,38.4,29.1,30.12,South,180,5.0,11.0,69,0.00,,---,0.00,42.00,VWS V14.01,2013-11-09 13:00:00,
2013-11-09 08:05:00,38.7,29.1,30.12,South,180,4.0,10.0,68,0.00,,---,0.00,53.00,VWS V14.01,2013-11-09 13:05:00,
2013-11-09 08:10:00,39.0,29.4,30.13,South,180,5.0,15.0,68,0.00,,---,0.00,71.00,VWS V14.01,2013-11-09 13:10:00,
2013-11-09 08:15:00,39.4,29.4,30.12,South,180,4.0,11.0,67,0.00,,---,0.00,78.00,VWS V14.01,2013-11-09 13:15:00,
2013-11-09 08:20:00,39.8,29.4,30.12,South,180,5.0,12.0,66,0.00,,---,0.00,90.00,VWS V14.01,2013-11-09 13:20:00,
2013-11-09 08:25:00,40.2,29.4,30.12,South,180,4.0,12.0,65,0.00,,---,0.00,99.00,VWS V14.01,2013-11-09 13:25:00,
2013-11-09 08:30:00,40.6,29.8,30.12,South,180,5.0,14.0,65,0.00,,---,0.00,145.00,VWS V14.01,2013-11-09 13:30:00,
2013-11-09 08:35:00,41.0,29.8,30.12,South,180,5.0,12.0,64,0.00,,---,0.00,147.00,VWS V14.01,2013-11-09 13:35:00,
2013-11-09 08:40:00,41.4,30.1,30.12,SSW,202,5.0,14.0,64,0.00,,---,0.00,176.00,VWS V14.01,2013-11-09 13:40:00,
2013-11-09 08:45:00,41.8,30.1,30.12,SSW,202,6.0,12.0,63,0.00,,---,0.00,181.00,VWS V14.01,2013-11-09 13:45:00,
2013-11-09 08:50:00,42.3,30.2,30.12,SSW,202,6.0,14.0,62,0.00,,---,0.00,181.00,VWS V14.01,2013-11-09 13:50:00,
2013-11-09 08:55:00,42.6,30.1,30.12,SSW,202,6.0,11.0,61,0.00,,---,0.00,227.00,VWS V14.01,2013-11-09 13:55:00,
2013-11-09 09:00:00,43.0,30.5,30.12,SSW,202,4.0,11.0,61,0.00,,---,0.00,248.00,VWS V14.01,2013-11-09 14:00:00,
2013-11-09 09:05:00,43.4,30.5,30.11,SSW,202,7.0,15.0,60,0.00,,---,0.00,251.00,VWS V14.01,2013-11-09 14:05:00,
2013-11-09 09:10:00,43.7,30.3,30.11,SSW,202,8.0,16.0,59,0.00,,---,0.00,288.00,VWS V14.01,2013-11-09 14:10:00,
2013-11-09 09:15:00,44.0,30.6,30.11,SSW,202,8.0,17.0,59,0.00,,---,0.00,292.00,VWS V14.01,2013-11-09 14:15:00,
2013-11-09 09:20:00,44.2,30.8,30.11,SSW,202,8.0,16.0,59,0.00,,---,0.00,295.00,VWS V14.01,2013-11-09 14:20:00,
2013-11-09 09:25:00,44.4,31.0,30.11,SSW,202,8.0,16.0,59,0.00,,---,0.00,322.00,VWS V14.01,2013-11-09 14:25:00,
2013-11-09 09:30:00,44.5,31.1,30.11,SSW,202,6.0,12.0,59,0.00,,---,0.00,296.00,VWS V14.01,2013-11-09 14:30:00,
2013-11-09 09:35:00,44.7,31.3,30.10,SSW,202,6.0,14.0,59,0.00,,---,0.00,322.00,VWS V14.01,2013-11-09 14:35:00,
2013-11-09 09:40:00,44.9,31.5,30.11,SSW,202,5.0,13.0,59,0.00,,---,0.00,341.00,VWS V14.01,2013-11-09 14:40:00,
2013-11-09 09:45:00,45.2,31.3,30.10,SSW,202,6.0,13.0,58,0.00,,---,0.00,355.00,VWS V14.01,2013-11-09 14:45:00,
2013-11-09 09:50:00,45.5,31.6,30.10,South,180,5.0,11.0,58,0.00,,---,0.00,374.00,VWS V14.01,2013-11-09 14:50:00,
2013-11-09 09:55:00,45.9,32.0,30.10,SSW,202,4.0,11.0,58,0.00,,---,0.00,379.00,VWS V14.01,2013-11-09 14:55:00,
2013-11-09 10:00:00,46.2,32.2,30.10,SSW,202,5.0,11.0,58,0.00,,---,0.00,383.00,VWS V14.01,2013-11-09 15:00:00,
2013-11-09 10:05:00,46.6,32.2,30.09,SSW,202,6.0,13.0,57,0.00,,---,0.00,389.00,VWS V14.01,2013-11-09 15:05:00,
2013-11-09 10:10:00,46.8,32.4,30.09,South,180,5.0,13.0,57,0.00,,---,0.00,407.00,VWS V14.01,2013-11-09 15:10:00,
2013-11-09 10:15:00,47.2,32.3,30.09,South,180,6.0,13.0,56,0.00,,---,0.00,415.00,VWS V14.01,2013-11-09 15:15:00,
2013-11-09 10:20:00,47.5,32.6,30.09,SW,225,6.0,12.0,56,0.00,,---,0.00,424.00,VWS V14.01,2013-11-09 15:20:00,
2013-11-09 10:25:00,47.7,32.3,30.09,SSW,202,7.0,14.0,55,0.00,,---,0.00,433.00,VWS V14.01,2013-11-09 15:25:00,
2013-11-09 10:30:00,47.9,33.0,30.09,SSW,202,4.0,9.0,56,0.00,,---,0.00,442.00,VWS V14.01,2013-11-09 15:30:00,
2013-11-09 10:35:00,48.3,32.4,30.08,SW,225,7.0,15.0,54,0.00,,---,0.00,450.00,VWS V14.01,2013-11-09 15:35:00,
2013-11-09 10:40:00,48.9,32.1,30.07,SSW,202,8.0,18.0,52,0.00,,---,0.00,459.00,VWS V14.01,2013-11-09 15:40:00,
2013-11-09 10:45:00,49.5,32.6,30.07,SW,225,9.0,20.0,52,0.00,,---,0.00,468.00,VWS V14.01,2013-11-09 15:45:00,
2013-11-09 10:50:00,50.0,32.6,30.07,SW,225,8.0,16.0,51,0.00,,---,0.00,476.00,VWS V14.01,2013-11-09 15:50:00,
2013-11-09 10:55:00,50.5,31.6,30.06,SW,225,11.0,18.0,48,0.00,,---,0.00,484.00,VWS V14.01,2013-11-09 15:55:00,
2013-11-09 11:00:00,50.9,31.4,30.05,SW,225,12.0,19.0,47,0.00,,---,0.00,498.00,VWS V14.01,2013-11-09 16:00:00,
2013-11-09 11:05:00,51.2,31.1,30.05,SW,225,13.0,23.0,46,0.00,,---,0.00,505.00,VWS V14.01,2013-11-09 16:05:00,
2013-11-09 11:10:00,51.4,31.9,30.04,SW,225,11.0,23.0,47,0.00,,---,0.00,516.00,VWS V14.01,2013-11-09 16:10:00,
2013-11-09 11:15:00,51.7,31.6,30.04,SSW,202,11.0,22.0,46,0.00,,---,0.00,529.00,VWS V14.01,2013-11-09 16:15:00,
2013-11-09 11:20:00,52.0,32.4,30.03,SW,225,11.0,25.0,47,0.00,,---,0.00,533.00,VWS V14.01,2013-11-09 16:20:00,
2013-11-09 11:25:00,52.2,32.1,30.03,SW,225,13.0,21.0,46,0.00,,---,0.00,537.00,VWS V14.01,2013-11-09 16:25:00,
2013-11-09 11:30:00,52.3,32.7,30.03,SW,225,10.0,17.0,47,0.00,,---,0.00,618.00,VWS V14.01,2013-11-09 16:30:00,
2013-11-09 11:35:00,52.6,33.0,30.03,SW,225,11.0,24.0,47,0.00,,---,0.00,709.00,VWS V14.01,2013-11-09 16:35:00,
2013-11-09 11:40:00,53.0,32.8,30.02,SW,225,12.0,23.0,46,0.00,,---,0.00,716.00,VWS V14.01,2013-11-09 16:40:00,
2013-11-09 11:45:00,53.2,33.5,30.02,SW,225,14.0,23.0,47,0.00,,---,0.00,673.00,VWS V14.01,2013-11-09 16:45:00,
2013-11-09 11:50:00,53.1,33.4,30.02,SW,225,12.0,21.0,47,0.00,,---,0.00,316.00,VWS V14.01,2013-11-09 16:50:00,
2013-11-09 11:55:00,52.8,33.7,30.01,SW,225,12.0,19.0,48,0.00,,---,0.00,578.00,VWS V14.01,2013-11-09 16:55:00,
2013-11-09 12:00:00,53.0,33.8,30.01,SW,225,10.0,20.0,48,0.00,,---,0.00,554.00,VWS V14.01,2013-11-09 17:00:00,
2013-11-09 12:05:00,53.3,34.1,30.00,SW,225,10.0,19.0,48,0.00,,---,0.00,560.00,VWS V14.01,2013-11-09 17:05:00,
2013-11-09 12:10:00,53.7,34.0,30.00,SW,225,12.0,22.0,47,0.00,,---,0.00,557.00,VWS V14.01,2013-11-09 17:10:00,
2013-11-09 12:15:00,53.9,34.2,30.00,SW,225,12.0,21.0,47,0.00,,---,0.00,557.00,VWS V14.01,2013-11-09 17:15:00,
2013-11-09 12:20:00,54.2,34.4,30.00,SW,225,9.0,19.0,47,0.00,,---,0.00,555.00,VWS V14.01,2013-11-09 17:20:00,
2013-11-09 12:25:00,54.4,34.6,29.99,SW,225,11.0,21.0,47,0.00,,---,0.00,551.00,VWS V14.01,2013-11-09 17:25:00,
2013-11-09 12:30:00,54.5,34.7,29.99,SW,225,11.0,20.0,47,0.00,,---,0.00,544.00,VWS V14.01,2013-11-09 17:30:00,
2013-11-09 12:35:00,54.7,34.3,29.99,SW,225,11.0,18.0,46,0.00,,---,0.00,542.00,VWS V14.01,2013-11-09 17:35:00,
2013-11-09 12:40:00,55.0,34.1,29.98,SW,225,12.0,21.0,45,0.00,,---,0.00,541.00,VWS V14.01,2013-11-09 17:40:00,
2013-11-09 12:45:00,55.1,34.2,29.98,SW,225,13.0,21.0,45,0.00,,---,0.00,540.00,VWS V14.01,2013-11-09 17:45:00,
2013-11-09 12:50:00,55.2,34.2,29.98,SW,225,12.0,22.0,45,0.00,,---,0.00,538.00,VWS V14.01,2013-11-09 17:50:00,
2013-11-09 12:55:00,55.4,34.4,29.97,SW,225,11.0,17.0,45,0.00,,---,0.00,534.00,VWS V14.01,2013-11-09 17:55:00,
2013-11-09 13:00:00,55.7,35.8,29.97,SW,225,10.0,22.0,47,0.00,,---,0.00,532.00,VWS V14.01,2013-11-09 18:00:00,
2013-11-09 13:05:00,56.2,34.0,29.96,SW,225,11.0,19.0,43,0.00,,---,0.00,530.00,VWS V14.01,2013-11-09 18:05:00,
2013-11-09 13:10:00,56.6,33.8,29.96,SW,225,13.0,31.0,42,0.00,,---,0.00,535.00,VWS V14.01,2013-11-09 18:10:00,
2013-11-09 13:15:00,56.7,33.3,29.96,SW,225,15.0,24.0,41,0.00,,---,0.00,565.00,VWS V14.01,2013-11-09 18:15:00,
2013-11-09 13:20:00,56.7,33.9,29.96,WSW,248,15.0,23.0,42,0.00,,---,0.00,569.00,VWS V14.01,2013-11-09 18:20:00,
2013-11-09 13:25:00,56.9,34.7,29.95,SW,225,14.0,23.0,43,0.00,,---,0.00,528.00,VWS V14.01,2013-11-09 18:25:00,
2013-11-09 13:30:00,57.0,34.2,29.95,SW,225,13.0,25.0,42,0.00,,---,0.00,563.00,VWS V14.01,2013-11-09 18:30:00,
2013-11-09 13:35:00,57.2,34.9,29.94,SW,225,15.0,25.0,43,0.00,,---,0.00,504.00,VWS V14.01,2013-11-09 18:35:00,
2013-11-09 13:40:00,57.2,34.9,29.94,SW,225,12.0,19.0,43,0.00,,---,0.00,490.00,VWS V14.01,2013-11-09 18:40:00,
2013-11-09 13:45:00,57.3,34.4,29.95,SW,225,14.0,27.0,42,0.00,,---,0.00,509.00,VWS V14.01,2013-11-09 18:45:00,
2013-11-09 13:50:00,57.5,35.8,29.94,SW,225,13.0,23.0,44,0.00,,---,0.00,493.00,VWS V14.01,2013-11-09 18:50:00,
2013-11-09 13:55:00,57.7,35.4,29.94,SW,225,13.0,23.0,43,0.00,,---,0.00,483.00,VWS V14.01,2013-11-09 18:55:00,
2013-11-09 14:00:00,57.8,35.5,29.93,SW,225,13.0,22.0,43,0.00,,---,0.00,477.00,VWS V14.01,2013-11-09 19:00:00,
2013-11-09 14:05:00,58.0,35.7,29.93,SW,225,13.0,23.0,43,0.00,,---,0.00,472.00,VWS V14.01,2013-11-09 19:05:00,
2013-11-09 14:10:00,58.0,35.7,29.93,SW,225,15.0,23.0,43,0.00,,---,0.00,458.00,VWS V14.01,2013-11-09 19:10:00,
2013-11-09 14:15:00,58.1,35.2,29.92,SW,225,16.0,30.0,42,0.00,,---,0.00,451.00,VWS V14.01,2013-11-09 19:15:00,
2013-11-09 14:20:00,58.1,35.7,29.92,SW,225,12.0,21.0,43,0.00,,---,0.00,467.00,VWS V14.01,2013-11-09 19:20:00,
2013-11-09 14:25:00,58.2,35.8,29.92,SW,225,13.0,21.0,43,0.00,,---,0.00,475.00,VWS V14.01,2013-11-09 19:25:00,
2013-11-09 14:30:00,58.2,34.6,29.92,SW,225,16.0,27.0,41,0.00,,---,0.00,321.00,VWS V14.01,2013-11-09 19:30:00,
2013-11-09 14:35:00,58.1,35.7,29.93,SW,225,12.0,23.0,43,0.00,,---,0.00,410.00,VWS V14.01,2013-11-09 19:35:00,
2013-11-09 14:40:00,58.2,35.2,29.93,SW,225,13.0,21.0,42,0.00,,---,0.00,397.00,VWS V14.01,2013-11-09 19:40:00,
2013-11-09 14:45:00,58.4,35.4,29.93,SW,225,13.0,22.0,42,0.00,,---,0.00,385.00,VWS V14.01,2013-11-09 19:45:00,
2013-11-09 14:50:00,58.4,34.8,29.92,SW,225,15.0,26.0,41,0.00,,---,0.00,375.00,VWS V14.01,2013-11-09 19:50:00,
2013-11-09 14:55:00,58.4,36.0,29.92,SW,225,11.0,20.0,43,0.00,,---,0.00,364.00,VWS V14.01,2013-11-09 19:55:00,
2013-11-09 15:00:00,58.5,35.5,29.92,SW,225,11.0,19.0,42,0.00,,---,0.00,354.00,VWS V14.01,2013-11-09 20:00:00,
2013-11-09 15:05:00,58.6,35.6,29.92,SW,225,13.0,22.0,42,0.00,,---,0.00,343.00,VWS V14.01,2013-11-09 20:05:00,
2013-11-09 15:10:00,58.6,35.6,29.92,SW,225,13.0,20.0,42,0.00,,---,0.00,333.00,VWS V14.01,2013-11-09 20:10:00,
2013-11-09 15:15:00,58.7,35.7,29.93,SW,225,14.0,26.0,42,0.00,,---,0.00,320.00,VWS V14.01,2013-11-09 20:15:00,
2013-11-09 15:20:00,58.8,36.4,29.92,WSW,248,9.0,19.0,43,0.00,,---,0.00,307.00,VWS V14.01,2013-11-09 20:20:00,
2013-11-09 15:25:00,58.8,35.2,29.92,SW,225,12.0,22.0,41,0.00,,---,0.00,294.00,VWS V14.01,2013-11-09 20:25:00,
2013-11-09 15:30:00,58.9,35.9,29.93,SW,225,12.0,19.0,42,0.00,,---,0.00,280.00,VWS V14.01,2013-11-09 20:30:00,
2013-11-09 15:35:00,58.9,35.3,29.93,SW,225,14.0,26.0,41,0.00,,---,0.00,267.00,VWS V14.01,2013-11-09 20:35:00,
2013-11-09 15:40:00,58.7,35.7,29.93,SW,225,13.0,22.0,42,0.00,,---,0.00,255.00,VWS V14.01,2013-11-09 20:40:00,
2013-11-09 15:45:00,58.7,35.7,29.92,SW,225,13.0,25.0,42,0.00,,---,0.00,240.00,VWS V14.01,2013-11-09 20:45:00,
2013-11-09 15:50:00,58.6,35.6,29.92,SW,225,14.0,26.0,42,0.00,,---,0.00,225.00,VWS V14.01,2013-11-09 20:50:00,
2013-11-09 15:55:00,58.6,36.2,29.92,SW,225,10.0,19.0,43,0.00,,---,0.00,208.00,VWS V14.01,2013-11-09 20:55:00,
2013-11-09 16:00:00,58.6,35.6,29.92,SW,225,11.0,20.0,42,0.00,,---,0.00,192.00,VWS V14.01,2013-11-09 21:00:00,
2013-11-09 16:05:00,58.6,36.2,29.92,SW,225,10.0,20.0,43,0.00,,---,0.00,174.00,VWS V14.01,2013-11-09 21:05:00,
2013-11-09 16:10:00,58.5,36.1,29.92,SW,225,11.0,23.0,43,0.00,,---,0.00,158.00,VWS V14.01,2013-11-09 21:10:00,
2013-11-09 16:15:00,58.4,34.8,29.93,SW,225,13.0,21.0,41,0.00,,---,0.00,142.00,VWS V14.01,2013-11-09 21:15:00,
2013-11-09 16:20:00,58.3,35.3,29.92,SW,225,10.0,18.0,42,0.00,,---,0.00,125.00,VWS V14.01,2013-11-09 21:20:00,
2013-11-09 16:25:00,58.2,35.2,29.92,SW,225,11.0,22.0,42,0.00,,---,0.00,109.00,VWS V14.01,2013-11-09 21:25:00,
2013-11-09 16:30:00,58.0,35.1,29.93,SW,225,13.0,21.0,42,0.00,,---,0.00,93.00,VWS V14.01,2013-11-09 21:30:00,
2013-11-09 16:35:00,57.9,35.0,29.93,SW,225,11.0,21.0,42,0.00,,---,0.00,77.00,VWS V14.01,2013-11-09 21:35:00,
2013-11-09 16:59:00,57.9,35.0,29.93,SW,225,11.0,21.0,42,0.00,,---,0.00,77.00,VWS V14.01,2013-11-09 21:59:00,
2013-11-09 17:04:00,56.7,34.5,29.92,SW,235,10.0,11.0,43,0.00,,---,0.00,12.00,VWS V14.01,2013-11-09 22:04:00,
2013-11-09 17:09:00,56.4,34.8,29.93,SW,234,9.0,18.0,44,0.00,,---,0.00,9.00,VWS V14.01,2013-11-09 22:09:00,
2013-11-09 17:14:00,56.2,34.6,29.93,SW,234,7.0,20.0,44,0.00,,---,0.00,7.00,VWS V14.01,2013-11-09 22:14:00,
2013-11-09 17:19:00,56.0,34.4,29.93,SW,233,7.0,14.0,44,0.00,,---,0.00,5.00,VWS V14.01,2013-11-09 22:19:00,
2013-11-09 17:24:00,55.7,34.7,29.93,WSW,240,7.0,16.0,45,0.00,,---,0.00,0.00,VWS V14.01,2013-11-09 22:24:00,
2013-11-09 17:29:00,55.4,34.4,29.93,WSW,244,9.0,18.0,45,0.00,,---,0.00,0.00,VWS V14.01,2013-11-09 22:29:00,
2013-11-09 17:34:00,55.1,34.2,29.93,WSW,241,7.0,12.0,45,0.00,,---,0.00,0.00,VWS V14.01,2013-11-09 22:34:00,
2013-11-09 17:39:00,54.9,34.5,29.93,SW,223,5.0,11.0,46,0.00,,---,0.00,0.00,VWS V14.01,2013-11-09 22:39:00,
2013-11-09 17:44:00,54.7,34.3,29.94,SW,232,6.0,9.0,46,0.00,,---,0.00,0.00,VWS V14.01,2013-11-09 22:44:00,
2013-11-09 17:49:00,54.5,34.2,29.93,SSW,213,3.0,11.0,46,0.00,,---,0.00,0.00,VWS V14.01,2013-11-09 22:49:00,
2013-11-09 17:54:00,54.3,34.0,29.94,SSW,213,5.0,9.0,46,0.00,,---,0.00,0.00,VWS V14.01,2013-11-09 22:54:00,
2013-11-09 17:59:00,54.2,33.9,29.94,SSW,201,10.0,15.0,46,0.00,,---,0.00,0.00,VWS V14.01,2013-11-09 22:59:00,
2013-11-09 18:04:00,54.2,33.9,29.94,SW,221,6.0,11.0,46,0.00,,---,0.00,0.00,VWS V14.01,2013-11-09 23:04:00,
2013-11-09 18:09:00,54.2,34.4,29.94,SW,232,6.0,14.0,47,0.00,,---,0.00,0.00,VWS V14.01,2013-11-09 23:09:00,
2013-11-09 18:14:00,54.1,34.3,29.94,SW,214,2.0,13.0,47,0.00,,---,0.00,0.00,VWS V14.01,2013-11-09 23:14:00,
2013-11-09 18:19:00,54.0,34.2,29.94,SW,223,11.0,11.0,47,0.00,,---,0.00,0.00,VWS V14.01,2013-11-09 23:19:00,
2013-11-09 18:24:00,53.9,34.2,29.94,SW,229,6.0,9.0,47,0.00,,---,0.00,0.00,VWS V14.01,2013-11-09 23:24:00,
2013-11-09 18:29:00,53.8,34.1,29.94,SW,235,7.0,12.0,47,0.00,,---,0.00,0.00,VWS V14.01,2013-11-09 23:29:00,
2013-11-09 18:34:00,53.7,34.5,29.94,SW,217,5.0,11.0,48,0.00,,---,0.00,0.00,VWS V14.01,2013-11-09 23:34:00,
2013-11-09 18:39:00,53.4,34.2,29.95,SW,225,1.0,11.0,48,0.00,,---,0.00,0.00,VWS V14.01,2013-11-09 23:39:00,
2013-11-09 18:44:00,53.2,34.5,29.95,SW,226,3.0,5.0,49,0.00,,---,0.00,0.00,VWS V14.01,2013-11-09 23:44:00,
2013-11-09 18:49:00,52.9,34.3,29.95,SW,234,2.0,7.0,49,0.00,,---,0.00,0.00,VWS V14.01,2013-11-09 23:49:00,
2013-11-09 18:54:00,52.6,34.5,29.95,SW,236,1.0,11.0,50,0.00,,---,0.00,0.00,VWS V14.01,2013-11-09 23:54:00,
2013-11-09 18:59:00,52.4,34.3,29.95,SW,229,2.0,8.0,50,0.00,,---,0.00,0.00,VWS V14.01,2013-11-09 23:59:00,
2013-11-09 19:04:00,52.1,34.0,29.96,SW,217,3.0,7.0,50,0.00,,---,0.00,0.00,VWS V14.01,2013-11-10 00:04:00,
2013-11-09 19:09:00,51.8,34.3,29.95,SW,220,3.0,11.0,51,0.00,,---,0.00,0.00,VWS V14.01,2013-11-10 00:09:00,
2013-11-09 19:14:00,51.7,34.2,29.96,SW,216,4.0,10.0,51,0.00,,---,0.00,0.00,VWS V14.01,2013-11-10 00:14:00,
2013-11-09 19:19:00,51.6,34.1,29.96,WSW,238,4.0,10.0,51,0.00,,---,0.00,0.00,VWS V14.01,2013-11-10 00:19:00,
2013-11-09 19:24:00,51.6,34.1,29.95,SW,215,5.0,9.0,51,0.00,,---,0.00,0.00,VWS V14.01,2013-11-10 00:24:00,
2013-11-09 19:29:00,51.6,34.1,29.95,SW,217,8.0,10.0,51,0.00,,---,0.00,0.00,VWS V14.01,2013-11-10 00:29:00,
2013-11-09 19:34:00,51.5,34.5,29.96,SW,235,3.0,8.0,52,0.00,,---,0.00,0.00,VWS V14.01,2013-11-10 00:34:00,
2013-11-09 19:39:00,51.5,34.5,29.96,SW,215,5.0,10.0,52,0.00,,---,0.00,0.00,VWS V14.01,2013-11-10 00:39:00,
2013-11-09 19:44:00,51.4,34.4,29.96,SW,224,4.0,10.0,52,0.00,,---,0.00,0.00,VWS V14.01,2013-11-10 00:44:00,
2013-11-09 19:49:00,51.2,34.2,29.96,SW,232,8.0,9.0,52,0.00,,---,0.00,0.00,VWS V14.01,2013-11-10 00:49:00,
2013-11-09 19:54:00,51.1,34.1,29.96,SW,221,5.0,12.0,52,0.00,,---,0.00,0.00,VWS V14.01,2013-11-10 00:54:00,
2013-11-09 19:59:00,51.0,34.5,29.96,WSW,242,3.0,6.0,53,0.00,,---,0.00,0.00,VWS V14.01,2013-11-10 00:59:00,
2013-11-09 20:04:00,50.9,34.4,29.96,SW,215,6.0,10.0,53,0.00,,---,0.00,0.00,VWS V14.01,2013-11-10 01:04:00,
2013-11-09 20:09:00,50.9,34.4,29.96,SW,216,4.0,11.0,53,0.00,,---,0.00,0.00,VWS V14.01,2013-11-10 01:09:00,
2013-11-09 20:14:00,50.9,34.4,29.96,SW,214,6.0,7.0,53,0.00,,---,0.00,0.00,VWS V14.01,2013-11-10 01:14:00,
2013-11-09 20:19:00,51.0,34.5,29.96,SW,222,7.0,9.0,53,0.00,,---,0.00,0.00,VWS V14.01,2013-11-10 01:19:00,
2013-11-09 20:24:00,51.0,34.5,29.96,SW,214,4.0,9.0,53,0.00,,---,0.00,0.00,VWS V14.01,2013-11-10 01:24:00,
2013-11-09 20:29:00,50.9,34.9,29.96,SW,217,7.0,10.0,54,0.00,,---,0.00,0.00,VWS V14.01,2013-11-10 01:29:00,
2013-11-09 20:34:00,50.8,34.8,29.96,SSW,210,4.0,9.0,54,0.00,,---,0.00,0.00,VWS V14.01,2013-11-10 01:34:00,
2013-11-09 20:39:00,50.7,34.2,29.96,SW,214,9.0,9.0,53,0.00,,---,0.00,0.00,VWS V14.01,2013-11-10 01:39:00,
2013-11-09 20:44:00,50.6,34.1,29.96,SW,224,1.0,11.0,53,0.00,,---,0.00,0.00,VWS V14.01,2013-11-10 01:44:00,
2013-11-09 20:49:00,50.5,34.0,29.97,SW,227,10.0,11.0,53,0.00,,---,0.00,0.00,VWS V14.01,2013-11-10 01:49:00,
2013-11-09 20:54:00,50.6,34.1,29.97,SSW,211,6.0,10.0,53,0.00,,---,0.00,0.00,VWS V14.01,2013-11-10 01:54:00,
2013-11-09 20:59:00,50.6,34.1,29.96,SW,221,7.0,13.0,53,0.00,,---,0.00,0.00,VWS V14.01,2013-11-10 01:59:00,
2013-11-09 21:04:00,50.8,34.3,29.96,SW,225,6.0,12.0,53,0.00,,---,0.00,0.00,VWS V14.01,2013-11-10 02:04:00,
2013-11-09 21:09:00,50.9,34.4,29.96,SW,222,5.0,12.0,53,0.00,,---,0.00,0.00,VWS V14.01,2013-11-10 02:09:00,
2013-11-09 21:14:00,50.9,34.4,29.96,SW,216,6.0,14.0,53,0.00,,---,0.00,0.00,VWS V14.01,2013-11-10 02:14:00,
2013-11-09 21:19:00,51.0,34.5,29.96,South,190,8.0,16.0,53,0.00,,---,0.00,0.00,VWS V14.01,2013-11-10 02:19:00,
2013-11-09 21:24:00,51.2,34.7,29.96,SW,217,11.0,12.0,53,0.00,,---,0.00,0.00,VWS V14.01,2013-11-10 02:24:00,
2013-11-09 21:29:00,51.4,34.9,29.96,SW,220,7.0,12.0,53,0.00,,---,0.00,0.00,VWS V14.01,2013-11-10 02:29:00,
2013-11-09 21:34:00,51.5,35.0,29.96,SW,236,6.0,13.0,53,0.00,,---,0.00,0.00,VWS V14.01,2013-11-10 02:34:00,
2013-11-09 21:39:00,51.7,35.6,29.96,WSW,238,3.0,14.0,54,0.00,,---,0.00,0.00,VWS V14.01,2013-11-10 02:39:00,
2013-11-09 21:44:00,51.9,35.8,29.96,WSW,242,11.0,14.0,54,0.00,,---,0.00,0.00,VWS V14.01,2013-11-10 02:44:00,
2013-11-09 21:49:00,52.1,36.0,29.96,WSW,246,8.0,15.0,54,0.00,,---,0.00,0.00,VWS V14.01,2013-11-10 02:49:00,
2013-11-09 21:54:00,52.3,36.2,29.95,SW,223,11.0,16.0,54,0.00,,---,0.00,0.00,VWS V14.01,2013-11-10 02:54:00,
2013-11-09 21:59:00,52.6,36.5,29.96,SW,227,11.0,16.0,54,0.00,,---,0.00,0.00,VWS V14.01,2013-11-10 02:59:00,
2013-11-09 22:04:00,52.7,36.5,29.95,SSW,200,8.0,16.0,54,0.00,,---,0.00,0.00,VWS V14.01,2013-11-10 03:04:00,
2013-11-09 22:09:00,52.8,36.6,29.95,SW,227,10.0,19.0,54,0.00,,---,0.00,0.00,VWS V14.01,2013-11-10 03:09:00,
2013-11-09 22:14:00,52.9,37.2,29.95,SW,221,12.0,14.0,55,0.00,,---,0.00,0.00,VWS V14.01,2013-11-10 03:14:00,
2013-11-09 22:19:00,52.9,37.2,29.95,SW,231,10.0,19.0,55,0.00,,---,0.00,0.00,VWS V14.01,2013-11-10 03:19:00,
2013-11-09 22:24:00,53.0,37.3,29.95,WSW,246,14.0,22.0,55,0.00,,---,0.00,0.00,VWS V14.01,2013-11-10 03:24:00,
2013-11-09 22:29:00,53.1,37.8,29.95,SW,229,4.0,19.0,56,0.00,,---,0.00,0.00,VWS V14.01,2013-11-10 03:29:00,
2013-11-09 22:34:00,53.2,37.9,29.96,WSW,253,6.0,16.0,56,0.00,,---,0.00,0.00,VWS V14.01,2013-11-10 03:34:00,
2013-11-09 22:39:00,53.1,38.3,29.96,SW,227,18.0,22.0,57,0.00,,---,0.00,0.00,VWS V14.01,2013-11-10 03:39:00,
2013-11-09 22:45:00,53.1,38.3,29.96,West,262,13.0,20.0,57,0.00,,---,0.00,0.00,VWS V14.01,2013-11-10 03:45:00,
2013-11-09 22:50:00,53.1,38.3,29.96,WSW,249,10.0,16.0,57,0.00,,---,0.00,0.00,VWS V14.01,2013-11-10 03:50:00,
2013-11-09 22:55:00,52.8,38.5,29.96,WSW,256,12.0,13.0,58,0.00,,---,0.00,0.00,VWS V14.01,2013-11-10 03:55:00,
2013-11-09 23:00:00,52.6,38.3,29.97,WSW,246,6.0,17.0,58,0.00,,---,0.00,0.00,VWS V14.01,2013-11-10 04:00:00,
2013-11-09 23:05:00,52.3,38.0,29.96,WSW,251,14.0,20.0,58,0.00,,---,0.00,0.00,VWS V14.01,2013-11-10 04:05:00,
2013-11-09 23:10:00,52.2,38.3,29.96,West,259,10.0,17.0,59,0.00,,---,0.00,0.00,VWS V14.01,2013-11-10 04:10:00,
2013-11-09 23:15:00,51.9,38.0,29.96,WSW,245,11.0,16.0,59,0.00,,---,0.00,0.00,VWS V14.01,2013-11-10 04:15:00,
2013-11-09 23:20:00,51.8,37.9,29.96,SW,225,11.0,16.0,59,0.00,,---,0.00,0.00,VWS V14.01,2013-11-10 04:20:00,
2013-11-09 23:25:00,51.6,37.8,29.97,SW,231,9.0,20.0,59,0.00,,---,0.00,0.00,VWS V14.01,2013-11-10 04:25:00,
2013-11-09 23:30:00,51.4,38.0,29.96,WSW,246,13.0,13.0,60,0.00,,---,0.00,0.00,VWS V14.01,2013-11-10 04:30:00,
2013-11-09 23:35:00,51.2,37.8,29.96,WSW,250,6.0,13.0,60,0.00,,---,0.00,0.00,VWS V14.01,2013-11-10 04:35:00,
2013-11-09 23:40:00,50.9,38.0,29.96,WSW,242,5.0,14.0,61,0.00,,---,0.00,0.00,VWS V14.01,2013-11-10 04:40:00,
2013-11-09 23:45:00,50.6,37.7,29.96,SW,221,5.0,9.0,61,0.00,,---,0.00,0.00,VWS V14.01,2013-11-10 04:45:00,
2013-11-09 23:50:00,50.3,37.8,29.97,WSW,244,3.0,13.0,62,0.00,,---,0.00,0.00,VWS V14.01,2013-11-10 04:50:00,
2013-11-09 23:55:00,50.0,37.9,29.97,WSW,244,6.0,10.0,63,0.00,,---,0.00,0.00,VWS V14.01,2013-11-10 04:55:00,